CW8014 Weather Reports


Display with metric or nautical units.
time (UTC)temp
F
wind
direction
speed
MPH
gust
MPH
rain 1hr
in
rain 24hr
in
rain mn
in
humidity
%
barometer
mb
20260901105406 69 284 6.0 16.0 0.00 0.16 0.00 71 1018.6
20260901103404 68 284 5.0 13.0 0.00 0.16 0.00 74 1018.6
20260901102404 66 324 8.0 16.0 0.00 0.16 0.00 76 1018.7
20260901101404 66 295 6.0 14.0 0.00 0.16 0.00 77 1018.5
20260901100404 66 259 6.0 13.0 0.00 0.16 0.00 77 1018.6
20260901094404 65 281 6.0 13.0 0.00 0.16 0.00 78 1018.4
20260901093404 65 317 7.0 15.0 0.00 0.16 0.00 79 1018.3
20260901092404 66 305 7.0 15.0 0.00 0.16 0.00 79 1018.2
20260901091404 66 50 8.0 17.0 0.00 0.16 0.00 78 1018.1
20260901090404 66 242 8.0 17.0 0.00 0.16 0.00 77 1018.1
20260901085404 66 303 7.0 15.0 0.00 0.16 0.00 79 1017.9
20260901084405 66 277 6.0 15.0 0.00 0.16 0.00 79 1017.8
20260901081404 66 225 6.0 13.0 0.00 0.16 0.00 86 1017.5
20260901080404 65 254 4.0 12.0 0.00 0.16 0.00 88 1017.3
20260901074404 64 225 5.0 13.0 0.00 0.16 0.00 91 1017.2
20260901073404 63 293 5.0 13.0 0.00 0.16 0.00 92 1017.2
20260901072404 62 261 5.0 12.0 0.00 0.16 0.00 93 1017.1
20260901070404 61 258 4.0 11.0 0.00 0.16 0.00 95 1017.1
20260901065404 61 254 3.0 9.0 0.00 0.16 0.00 96 1017.0
20260901064404 60 290 4.0 9.0 0.00 0.16 0.00 96 1017.0
20260901062404 60 209 1.0 5.0 0.00 0.16 0.00 96 1016.8
20260901061405 60 294 2.0 6.0 0.00 0.16 0.00 96 1016.6
20260901060404 59 211 2.0 7.0 0.00 0.16 0.00 96 1016.5
20260901055404 59 209 2.0 5.0 0.00 0.16 0.00 96 1016.5
20260901054405 58 157 1.0 5.0 0.00 0.16 0.00 96 1016.5
20260901053404 58 190 1.0 3.0 0.00 0.16 0.00 96 1016.3
20260901052405 58 178 1.0 5.0 0.00 0.16 0.00 96 1016.3
20260901050404 58 209 1.0 3.0 0.00 0.16 0.00 96 1016.1
20260901045404 58 190 2.0 4.0 0.00 0.16 0.00 96 1016.1
20260901044404 58 229 2.0 5.0 0.00 0.16 0.00 96 1016.0
20260901043404 58 209 1.0 3.0 0.00 0.16 0.00 96 1016.0
20260901042404 58 160 2.0 5.0 0.00 0.16 0.00 96 1015.9
20260901040404 58 192 1.0 2.0 0.00 0.16 0.00 95 1015.6
20260901035404 59 189 1.0 3.0 0.00 0.17 0.00 96 1015.7
20260901034404 59 209 1.0 3.0 0.00 0.17 0.00 95 1015.6
20260901033404 59 175 2.0 5.0 0.00 0.17 0.00 95 1015.6
20260901032404 59 234 1.0 6.0 0.00 0.17 0.00 95 1015.6
20260901031405 60 162 1.0 4.0 0.00 0.17 0.00 95 1015.6
20260901030404 60 232 2.0 5.0 0.00 0.17 0.00 95 1015.6
20260901025409 60 259 2.0 7.0 0.00 0.17 0.00 96 1015.5
20260901024409 59 198 2.0 6.0 0.00 0.17 0.00 96 1015.6
20260901022410 59 250 1.0 5.0 0.00 0.17 0.00 96 1015.5
20260901021409 59 255 3.0 7.0 0.00 0.17 0.00 96 1015.6
20260901020409 59 191 3.0 8.0 0.00 0.17 0.00 96 1015.4
20260901015410 59 209 3.0 6.0 0.00 0.17 0.00 96 1015.4
20260901014409 59 221 3.0 8.0 0.00 0.17 0.00 96 1015.3
20260901013409 58 247 3.0 7.0 0.00 0.17 0.00 96 1015.2
20260901012409 58 249 2.0 4.0 0.00 0.17 0.00 96 1015.2
20260901011411 58 229 2.0 5.0 0.00 0.17 0.00 96 1015.1
20260901010409 58 214 2.0 4.0 0.00 0.17 0.00 96 1015.0
20260901005410 58 273 2.0 5.0 0.00 0.17 0.00 95 1015.0
20260901004409 58 256 1.0 3.0 0.00 0.17 0.00 95 1014.9
20260901003409 58 244 1.0 4.0 0.00 0.17 0.00 95 1014.8
20260901002409 59 234 1.0 4.0 0.00 0.17 0.00 95 1014.8
20260901001410 59 285 2.0 6.0 0.00 0.17 0.00 95 1014.8
20260901000409 59 238 2.0 7.0 0.00 0.17 0.00 95 1014.8
20260831235410 59 200 2.0 6.0 0.00 0.17 0.00 95 1014.7
20260831233409 60 266 2.0 7.0 0.00 0.17 0.00 95 1014.7
20260831232409 60 245 3.0 9.0 0.00 0.17 0.00 95 1014.6
20260831231409 60 238 3.0 8.0 0.00 0.17 0.00 95 1014.5
20260831230409 60 37 3.0 10.0 0.00 0.17 0.00 95 1014.5
20260831225409 60 250 3.0 9.0 0.00 0.17 0.00 94 1014.5
20260831224409 60 267 3.0 7.0 0.00 0.17 0.00 95 1014.4
20260831223409 60 261 3.0 8.0 0.00 0.17 0.00 94 1014.3
20260831222409 60 283 4.0 9.0 0.00 0.17 0.00 94 1014.2
20260831221409 60 244 3.0 7.0 0.00 0.17 0.00 95 1014.2
20260831220409 60 267 3.0 8.0 0.00 0.17 0.00 95 1014.1
20260831214409 60 302 3.0 8.0 0.00 0.17 0.17 94 1013.9
20260831213411 60 242 3.0 8.0 0.00 0.17 0.17 94 1013.9
20260831212409 60 277 3.0 11.0 0.00 0.17 0.17 94 1013.8
20260831210409 60 226 4.0 8.0 0.00 0.17 0.17 94 1013.6
20260831205409 60 258 3.0 10.0 0.00 0.17 0.17 94 1013.4
20260831204409 60 241 3.0 11.0 0.00 0.17 0.17 94 1013.3
20260831203409 60 240 3.0 8.0 0.00 0.17 0.17 94 1013.3
20260831202409 60 238 3.0 7.0 0.00 0.17 0.17 93 1013.2
20260831200409 60 237 6.0 11.0 0.00 0.17 0.17 93 1012.8
20260831195409 61 279 4.0 11.0 0.00 0.17 0.17 93 1012.6
20260831193409 61 288 4.0 10.0 0.00 0.17 0.17 92 1012.2
20260831192409 61 270 4.0 11.0 0.00 0.17 0.17 91 1012.1
20260831191409 61 279 3.0 11.0 0.00 0.17 0.17 91 1012.0
20260831190409 61 171 5.0 12.0 0.00 0.17 0.17 91 1012.0
20260831185409 61 274 4.0 12.0 0.00 0.17 0.17 90 1011.7
20260831184409 61 263 4.0 9.0 0.00 0.17 0.17 90 1011.5
20260831183409 62 229 5.0 14.0 0.00 0.17 0.17 89 1011.4
20260831182409 62 274 6.0 12.0 0.00 0.17 0.17 88 1011.1
20260831181410 62 271 5.0 12.0 0.00 0.17 0.17 86 1011.0
20260831180409 63 229 6.0 17.0 0.00 0.17 0.17 86 1010.9
20260831175409 63 258 5.0 11.0 0.00 0.17 0.17 85 1010.7
20260831173409 64 239 6.0 15.0 0.00 0.17 0.17 85 1010.5
20260831172409 64 266 5.0 12.0 0.00 0.17 0.17 84 1010.5
20260831171409 64 326 8.0 17.0 0.00 0.17 0.17 85 1010.4
20260831170410 64 286 5.0 15.0 0.00 0.17 0.17 86 1010.2
20260831164409 63 242 6.0 15.0 0.00 0.19 0.17 86 1010.0
20260831163409 63 286 5.0 16.0 0.00 0.19 0.17 86 1010.1
20260831162409 63 250 6.0 18.0 0.00 0.19 0.17 85 1010.0
20260831161409 63 234 8.0 16.0 0.00 0.19 0.17 85 1009.8
20260831160409 63 248 6.0 13.0 0.00 0.19 0.17 85 1009.7
20260831155409 63 223 5.0 15.0 0.00 0.19 0.17 85 1009.7
20260831154409 63 257 9.0 21.0 0.00 0.19 0.17 84 1009.6
20260831152409 63 201 5.0 13.0 0.08 0.19 0.17 90 1009.3
20260831151409 62 234 6.0 16.0 0.08 0.19 0.17 90 1009.2
20260831150409 63 78 4.0 11.0 0.08 0.19 0.17 92 1009.1
20260831145409 62 155 3.0 10.0 0.08 0.19 0.17 92 1009.2
20260831144409 63 219 5.0 11.0 0.08 0.19 0.17 87 1008.9
20260831142404 66 178 7.0 14.0 0.00 0.11 0.09 83 1008.8
20260831140404 64 176 4.0 13.0 0.01 0.11 0.09 87 1008.9
20260831135405 63 186 5.0 11.0 0.01 0.11 0.09 87 1009.0
20260831134404 62 212 6.0 16.0 0.01 0.11 0.09 89 1008.9
20260831133404 61 169 6.0 13.0 0.02 0.11 0.09 89 1008.8
20260831132404 61 170 6.0 13.0 0.03 0.11 0.09 87 1008.8
20260831131404 62 181 5.0 11.0 0.02 0.10 0.08 85 1009.0
20260831130404 62 232 4.0 13.0 0.02 0.10 0.08 85 1008.9
20260831125404 62 227 4.0 11.0 0.02 0.10 0.08 87 1008.7
20260831124404 63 267 6.0 13.0 0.02 0.10 0.08 84 1008.5
20260831123404 67 343 7.0 19.0 0.04 0.09 0.06 81 1008.5
20260831122404 67 173 7.0 15.0 0.05 0.08 0.06 85 1008.2
20260831121404 65 213 8.0 19.0 0.05 0.08 0.06 88 1008.1
20260831120404 62 140 5.0 10.0 0.05 0.08 0.06 89 1008.0
20260831115404 62 174 6.0 12.0 0.05 0.08 0.06 89 1008.3
20260831113404 67 200 10.0 27.0 0.02 0.05 0.02 82 1008.2
20260831112405 69 173 8.0 23.0 0.00 0.03 0.01 74 1007.8
20260831111404 71 126 10.0 18.0 0.00 0.03 0.01 71 1007.6
20260831110404 70 170 8.0 16.0 0.00 0.03 0.01 72 1007.6